DW0735 Weather Reports


time (UTC)temp
C
wind
direction
speed
KPH
gust
KPH
rain 1hr
cm
rain 24hr
cm
rain mn
cm
humidity
%
barometer
mb
20260506092051 9 277 0.0 1.6 0.00 0.00 0.00 57 1008.9
20260506091549 10 261 0.0 3.2 0.00 0.00 0.00 57 1008.9
20260506091049 9 311 0.0 1.6 0.00 0.00 0.00 59 1008.9
20260506090548 9 321 0.0 1.6 0.00 0.00 0.00 58 1008.9
20260506090046 10 295 0.0 6.4 0.00 0.00 0.00 57 1008.9
20260506085544 10 266 0.0 6.4 0.00 0.00 0.00 55 1008.8
20260506085043 10 299 0.0 12.9 0.00 0.00 0.00 54 1008.7
20260506084542 10 12 0.0 12.9 0.00 0.00 0.00 54 1008.7
20260506084041 11 269 0.0 6.4 0.00 0.00 0.00 53 1008.7
20260506083540 11 293 0.0 8.0 0.00 0.00 0.00 53 1008.7
20260506083044 11 306 0.0 8.0 0.00 0.00 0.00 53 1008.5
20260506082539 11 282 1.6 9.7 0.00 0.00 0.00 53 1008.6
20260506082038 11 340 1.6 9.7 0.00 0.00 0.00 51 1008.5
20260506081537 11 308 1.6 8.0 0.00 0.00 0.00 54 1008.4
20260506081037 11 328 1.6 11.3 0.00 0.00 0.00 54 1008.5
20260506080540 11 332 1.6 8.0 0.00 0.00 0.00 54 1008.5
20260506073033 12 337 0.0 0.0 0.00 0.00 0.00 50 1008.1
20260506072532 12 9 0.0 0.0 0.00 0.00 0.00 51 1008.0
20260506072031 12 344 0.0 0.0 0.00 0.00 0.00 50 1007.9
20260506071535 12 351 0.0 0.0 0.00 0.00 0.00 50 1007.8
20260506071030 12 313 0.0 0.0 0.00 0.00 0.00 51 1007.8
20260506070530 12 288 0.0 0.0 0.00 0.00 0.00 51 1007.7
20260506062026 12 300 0.0 0.0 0.00 0.00 0.00 51 1007.0
20260506061533 12 239 0.0 0.0 0.00 0.00 0.00 50 1007.0
20260506061025 13 310 0.0 0.0 0.00 0.00 0.00 49 1006.8
20260506060524 12 313 0.0 0.0 0.00 0.00 0.00 50 1006.8
20260506051018 12 71 0.0 9.7 0.00 0.00 0.00 50 1005.8
20260506050517 13 272 0.0 8.0 0.00 0.00 0.00 50 1005.7
20260506045016 13 270 0.0 8.0 0.00 0.00 0.00 48 1005.6
20260506044521 13 256 0.0 8.0 0.00 0.00 0.00 48 1005.6
20260506044014 13 321 0.0 0.0 0.00 0.00 0.00 47 1005.3
20260506043517 13 323 0.0 0.0 0.00 0.00 0.00 47 1005.2
20260506043016 14 266 0.0 0.0 0.00 0.00 0.00 47 1005.1
20260506042513 14 327 0.0 0.0 0.00 0.00 0.00 46 1005.1
20260506042013 14 340 0.0 9.7 0.00 0.00 0.00 46 1005.0
20260506041512 14 287 0.0 11.3 0.00 0.00 0.00 46 1004.9
20260506041011 14 18 0.0 9.7 0.00 0.00 0.00 45 1004.9
20260506040510 15 304 0.0 3.2 0.00 0.00 0.00 45 1004.8
20260506040011 15 339 0.0 0.0 0.00 0.00 0.00 44 1004.6
20260506035510 15 293 0.0 0.0 0.00 0.00 0.00 44 1004.6
20260506035008 15 335 0.0 0.0 0.00 0.00 0.00 44 1004.5
20260506034508 15 244 0.0 6.4 0.00 0.00 0.00 43 1004.5
20260506034008 15 87 0.0 6.4 0.00 0.00 0.00 43 1004.3
20260506033506 15 38 0.0 3.2 0.00 0.00 0.00 42 1004.2
20260506033006 16 329 0.0 6.4 0.00 0.00 0.00 41 1004.1
20260506032505 16 339 0.0 6.4 0.00 0.00 0.00 41 1004.0
20260506032004 16 312 0.0 0.0 0.00 0.00 0.00 40 1003.9
20260506031510 17 290 0.0 1.6 0.00 0.00 0.00 39 1003.9
20260506031003 17 330 0.0 1.6 0.00 0.00 0.00 37 1003.9
20260506030504 18 20 0.0 1.6 0.00 0.00 0.00 36 1003.7
20260506030002 18 269 0.0 1.6 0.00 0.00 0.00 33 1003.7
20260506025503 18 338 0.0 1.6 0.00 0.00 0.00 32 1003.6
20260506025001 19 289 0.0 0.0 0.00 0.00 0.00 31 1003.6
20260506024600 19 292 0.0 8.0 0.00 0.00 0.00 31 1003.5
20260506024100 19 333 0.0 8.0 0.00 0.00 0.00 30 1003.4
20260506023559 19 23 0.0 1.6 0.00 0.00 0.00 30 1003.3
20260506023100 20 340 0.0 0.0 0.00 0.00 0.00 30 1003.2
20260506022559 20 296 0.0 0.0 0.00 0.00 0.00 31 1003.1
20260506022100 20 336 0.0 0.0 0.00 0.00 0.00 32 1003.1
20260506021614 20 341 0.0 0.0 0.00 0.00 0.00 30 1003.0
20260506021059 20 347 0.0 0.0 0.00 0.00 0.00 30 1002.9
20260506020559 20 313 0.0 0.0 0.00 0.00 0.00 30 1002.9
20260506020059 20 22 0.0 0.0 0.00 0.00 0.00 30 1002.9
20260506015559 20 327 0.0 0.0 0.00 0.00 0.00 31 1002.9
20260506015101 20 328 0.0 0.0 0.00 0.00 0.00 30 1002.8
20260506014603 21 9 0.0 0.0 0.00 0.00 0.00 30 1002.8
20260506014058 21 15 0.0 0.0 0.00 0.00 0.00 31 1002.8
20260506013600 21 12 0.0 0.0 0.00 0.00 0.00 29 1002.8
20260506013101 21 39 0.0 0.0 0.00 0.00 0.00 28 1002.8
20260506012559 22 20 0.0 0.0 0.00 0.00 0.00 25 1002.7
20260506012058 22 10 0.0 0.0 0.00 0.00 0.00 25 1002.7
20260506011600 22 271 0.0 0.0 0.00 0.00 0.00 25 1002.7
20260506011059 22 43 0.0 0.0 0.00 0.00 0.00 26 1002.7
20260506010557 22 34 0.0 0.0 0.00 0.00 0.00 27 1002.7
20260506010100 22 303 0.0 0.0 0.00 0.00 0.00 25 1002.7
20260506005557 22 27 0.0 0.0 0.00 0.00 0.00 27 1002.7
20260506005056 22 321 0.0 0.0 0.00 0.00 0.00 27 1002.6
20260506004627 22 281 0.0 0.0 0.00 0.00 0.00 28 1002.6
20260506004056 22 44 0.0 0.0 0.00 0.00 0.00 27 1002.5
20260506003556 22 347 0.0 0.0 0.00 0.00 0.00 27 1002.5
20260506003057 22 43 0.0 0.0 0.00 0.00 0.00 26 1002.5
20260506002556 22 355 0.0 0.0 0.00 0.00 0.00 26 1002.6
20260506002059 22 38 0.0 0.0 0.00 0.00 0.00 26 1002.6
20260506001559 22 309 0.0 0.0 0.00 0.00 0.00 26 1002.5
20260506001055 23 32 0.0 0.0 0.00 0.00 0.00 24 1002.5
20260506000555 23 17 0.0 0.0 0.00 0.00 0.00 25 1002.5
20260506000055 23 61 0.0 0.0 0.00 0.00 0.00 25 1002.4
20260505235554 23 47 0.0 0.0 0.00 0.00 0.00 26 1002.4
20260505235055 23 325 0.0 0.0 0.00 0.00 0.00 26 1002.3
20260505234613 23 347 0.0 0.0 0.00 0.00 0.00 27 1002.3
20260505234053 23 16 0.0 0.0 0.00 0.00 0.00 27 1002.3
20260505233553 23 19 0.0 0.0 0.00 0.00 0.00 26 1002.3
20260505233054 23 304 0.0 0.0 0.00 0.00 0.00 25 1002.4
20260505232553 23 27 0.0 0.0 0.00 0.00 0.00 26 1002.3
20260505232053 23 63 0.0 0.0 0.00 0.00 0.00 26 1002.2
20260505231554 23 330 0.0 0.0 0.00 0.00 0.00 25 1002.3
20260505231052 23 332 0.0 0.0 0.00 0.00 0.00 26 1002.3
20260505230552 23 65 0.0 0.0 0.00 0.00 0.00 25 1002.3
20260505230053 23 34 0.0 0.0 0.00 0.00 0.00 25 1002.5
20260505225552 23 45 0.0 0.0 0.00 0.00 0.00 25 1002.5
20260505225052 23 47 0.0 0.0 0.00 0.00 0.00 26 1002.5
20260505224552 23 301 0.0 0.0 0.00 0.00 0.00 23 1002.5
20260505224050 23 345 0.0 0.0 0.00 0.00 0.00 25 1002.5
20260505223549 23 291 0.0 0.0 0.00 0.00 0.00 26 1002.6
20260505223100 23 29 0.0 0.0 0.00 0.00 0.00 25 1002.5
20260505222548 23 22 0.0 0.0 0.00 0.00 0.00 25 1002.5
20260505222048 22 36 0.0 0.0 0.00 0.00 0.00 26 1002.5
20260505221559 22 346 0.0 0.0 0.00 0.00 0.00 27 1002.6
20260505221048 22 94 0.0 0.0 0.00 0.00 0.00 28 1002.5
20260505220549 21 48 0.0 0.0 0.00 0.00 0.00 28 1002.6
20260505220100 21 360 0.0 0.0 0.00 0.00 0.00 27 1002.7
20260505215549 22 61 0.0 0.0 0.00 0.00 0.00 25 1002.7
20260505215045 22 78 0.0 0.0 0.00 0.00 0.00 28 1002.7
20260505214602 21 67 0.0 0.0 0.00 0.00 0.00 28 1002.8
20260505214045 21 344 0.0 0.0 0.00 0.00 0.00 28 1002.8
20260505213546 21 24 0.0 0.0 0.00 0.00 0.00 28 1002.9
20260505213047 22 11 0.0 0.0 0.00 0.00 0.00 27 1002.8
20260505212545 22 327 0.0 0.0 0.00 0.00 0.00 26 1002.8
20260505212044 22 60 0.0 0.0 0.00 0.00 0.00 30 1003.0
20260505211544 21 311 0.0 0.0 0.00 0.00 0.00 28 1003.0
20260505211044 21 336 0.0 0.0 0.00 0.00 0.00 29 1003.1
20260505210545 21 30 0.0 0.0 0.00 0.00 0.00 29 1003.0
20260505210044 21 25 0.0 0.0 0.00 0.00 0.00 29 1002.9
20260505205546 21 323 0.0 0.0 0.00 0.00 0.00 28 1003.0
20260505205044 21 46 0.0 0.0 0.00 0.00 0.00 28 1003.0
20260505204543 21 40 0.0 0.0 0.00 0.00 0.00 27 1003.1
20260505204042 22 33 0.0 0.0 0.00 0.00 0.00 26 1003.1
20260505203543 22 53 0.0 0.0 0.00 0.00 0.00 26 1002.9
20260505203041 22 15 0.0 0.0 0.00 0.00 0.00 27 1003.0
20260505202544 21 346 0.0 0.0 0.00 0.00 0.00 28 1002.9
20260505202039 21 299 0.0 0.0 0.00 0.00 0.00 28 1003.1
20260505201539 20 304 0.0 0.0 0.00 0.00 0.00 28 1003.3
20260505201038 21 350 0.0 0.0 0.00 0.00 0.00 29 1003.2
20260505200538 21 35 0.0 9.7 0.00 0.00 0.00 28 1003.4
20260505200042 21 48 0.0 8.0 0.00 0.00 0.00 27 1003.3
20260505195537 21 11 0.0 0.0 0.00 0.00 0.00 30 1003.4
20260505195037 20 61 0.0 0.0 0.00 0.00 0.00 30 1003.4
20260505194538 20 66 0.0 0.0 0.00 0.00 0.00 31 1003.4
20260505194037 20 57 0.0 0.0 0.00 0.00 0.00 30 1003.4
20260505193537 21 41 0.0 11.3 0.00 0.00 0.00 30 1003.4
20260505193037 21 26 0.0 11.3 0.00 0.00 0.00 28 1003.4
20260505192535 21 24 0.0 1.6 0.00 0.00 0.00 29 1003.5
20260505192034 20 72 0.0 1.6 0.00 0.00 0.00 30 1003.4
20260505191534 20 71 0.0 11.3 0.00 0.00 0.00 32 1003.4
20260505191034 20 58 0.0 11.3 0.00 0.00 0.00 33 1003.4
20260505190532 20 71 0.0 0.0 0.00 0.00 0.00 30 1003.4
20260505190034 20 31 0.0 0.0 0.00 0.00 0.00 34 1003.4
20260505185532 20 31 0.0 0.0 0.00 0.00 0.00 30 1003.4
20260505185031 20 22 0.0 9.7 0.00 0.00 0.00 32 1003.4
20260505184531 20 24 0.0 9.7 0.00 0.00 0.00 33 1003.3
20260505184031 19 323 0.0 11.3 0.00 0.00 0.00 32 1003.3
20260505183531 19 315 0.0 1.6 0.00 0.00 0.00 33 1003.3
20260505183042 19 13 0.0 1.6 0.00 0.00 0.00 33 1003.4
20260505182530 19 319 0.0 0.0 0.00 0.00 0.00 33 1003.2
20260505182030 20 31 0.0 0.0 0.00 0.00 0.00 32 1003.2
20260505181528 20 72 0.0 3.2 0.00 0.00 0.00 31 1003.1
20260505181028 20 25 0.0 9.7 0.00 0.00 0.00 33 1003.0
20260505180528 20 317 0.0 9.7 0.00 0.00 0.00 32 1003.1
20260505180027 20 51 0.0 9.7 0.00 0.00 0.00 31 1002.9
20260505175527 20 331 0.0 0.0 0.00 0.00 0.00 31 1003.0
20260505175028 19 43 0.0 0.0 0.00 0.00 0.00 31 1002.9
20260505174526 20 69 0.0 1.6 0.00 0.00 0.00 32 1002.9
20260505174028 20 53 0.0 6.4 0.00 0.00 0.00 35 1002.9
20260505173528 19 37 0.0 16.1 0.00 0.00 0.00 34 1003.0
20260505173027 19 318 0.0 16.1 0.00 0.00 0.00 33 1002.9
20260505172525 19 43 0.0 0.0 0.00 0.00 0.00 34 1002.9
20260505172023 18 22 0.0 0.0 0.00 0.00 0.00 35 1003.0
20260505171523 18 342 0.0 0.0 0.00 0.00 0.00 35 1003.0
20260505171025 18 11 0.0 0.0 0.00 0.00 0.00 34 1003.0
20260505170522 19 319 0.0 0.0 0.00 0.00 0.00 34 1003.0
20260505170022 18 340 0.0 24.1 0.00 0.00 0.00 35 1003.0
20260505165521 18 327 0.0 24.1 0.00 0.00 0.00 35 1003.1
20260505165021 18 47 6.4 24.1 0.00 0.00 0.00 34 1003.0
20260505164521 19 34 4.8 17.7 0.00 0.00 0.00 36 1003.0
20260505164020 18 46 1.6 16.1 0.00 0.00 0.00 36 1002.8
20260505163519 18 22 0.0 11.3 0.00 0.00 0.00 37 1002.9
20260505163018 18 344 0.0 1.6 0.00 0.00 0.00 36 1002.9
20260505162517 18 38 0.0 19.3 0.00 0.00 0.00 35 1002.8
20260505162017 18 339 0.0 19.3 0.00 0.00 0.00 36 1002.8
20260505161520 18 71 0.0 8.0 0.00 0.00 0.00 37 1002.8
20260505161017 18 53 0.0 17.7 0.00 0.00 0.00 36 1002.8
20260505160516 18 350 0.0 17.7 0.00 0.00 0.00 38 1002.8
20260505153008 16 217 3.2 8.0 0.00 0.00 0.00 45 1002.8
20260505152508 16 214 3.2 6.4 0.00 0.00 0.00 46 1002.8
20260505152007 15 176 0.0 8.0 0.00 0.00 0.00 44 1002.9
20260505151611 15 142 3.2 8.0 0.00 0.00 0.00 46 1002.8
20260505151100 15 204 1.6 6.4 0.00 0.00 0.00 45 1002.8
20260505150602 15 119 0.0 8.0 0.00 0.00 0.00 47 1002.7
20260505140555 12 227 0.0 3.2 0.00 0.00 0.00 49 1002.4
20260505124556 10 184 0.0 1.6 0.00 0.00 0.00 52 1001.9
20260505124047 11 221 0.0 1.6 0.00 0.00 0.00 52 1001.7
20260505123546 11 214 0.0 8.0 0.00 0.00 0.00 51 1001.7
20260505123045 11 217 0.0 8.0 0.00 0.00 0.00 51 1001.6
20260505122544 11 232 0.0 8.0 0.00 0.00 0.00 51 1001.6
20260505122044 11 248 0.0 8.0 0.00 0.00 0.00 49 1001.6
20260505121544 11 228 1.6 6.4 0.00 0.00 0.00 45 1001.4
20260505121042 12 351 0.0 8.0 0.00 0.00 0.00 45 1001.4
20260505120542 11 325 0.0 11.3 0.00 0.00 0.00 45 1001.3
20260505120049 10 25 3.2 9.7 0.00 0.00 0.00 48 1001.3
20260505115540 10 296 0.0 3.2 0.00 0.00 0.00 49 1001.2
20260505115039 11 306 0.0 0.0 0.00 0.00 0.00 47 1001.4
20260505114542 11 307 0.0 1.6 0.00 0.00 0.00 45 1001.4
20260505114037 12 246 0.0 1.6 0.00 0.00 0.00 43 1001.4
20260505113540 12 245 0.0 1.6 0.00 0.00 0.00 42 1001.4
20260505113035 12 245 0.0 1.6 0.00 0.00 0.00 41 1001.3
20260505112538 12 245 0.0 3.2 0.00 0.00 0.00 40 1001.2
20260505112034 13 245 0.0 3.2 0.00 0.00 0.00 39 1001.2
20260505111533 13 262 0.0 12.9 0.00 0.00 0.00 39 1001.2
20260505111034 12 10 3.2 12.9 0.00 0.00 0.00 40 1001.2
20260505110532 12 234 0.0 6.4 0.00 0.00 0.00 42 1000.9
20260505102031 14 275 0.0 9.7 0.00 0.00 0.00 36 1000.8
20260505101528 14 219 0.0 9.7 0.00 0.00 0.00 37 1000.7
20260505101027 14 329 3.2 9.7 0.00 0.00 0.00 37 1000.7
20260505100527 14 302 0.0 8.0 0.00 0.00 0.00 40 1000.6
20260505100028 13 293 0.0 6.4 0.00 0.00 0.00 40 1000.6
20260505095526 13 290 0.0 8.0 0.00 0.00 0.00 41 1000.5
20260505095028 13 323 0.0 8.0 0.00 0.00 0.00 42 1000.5
20260505094529 13 16 0.0 1.6 0.00 0.00 0.00 42 1000.5
20260505094023 13 16 0.0 6.4 0.00 0.00 0.00 40 1000.6
20260505093526 14 252 0.0 3.2 0.00 0.00 0.00 40 1000.6
20260505093022 14 261 0.0 3.2 0.00 0.00 0.00 40 1000.7
20260505092521 14 319 0.0 3.2 0.00 0.00 0.00 40 1000.8